Location: Aufkirchen
(47.9603°N, 11.3653°E)
Time: 16:25:04
(UTC+01:00)

Transit 4A - All Passes

Search period start: 26 November 2020 00:00
Search period end: 06 December 2020 00:00
Orbit: 862 x 982 km, 66.8° (Epoch: 25 November)

Date Brightness Start Highest point End Pass type
(mag) Time Alt. Az. Time Alt. Az. Time Alt. Az.
26 Nov - 08:25:13 10° S 08:31:16 50° ESE 08:37:26 10° NE daylight
26 Nov - 10:11:49 10° WSW 10:17:49 42° NW 10:23:54 10° NNE daylight
26 Nov - 12:01:57 10° WNW 12:06:02 17° NNW 12:10:08 10° NNE daylight
26 Nov - 13:51:47 10° NNW 13:55:14 15° N 13:58:39 10° NE daylight
26 Nov - 15:38:25 10° NNW 15:43:54 29° NE 15:49:17 10° E daylight
26 Nov - 17:24:38 10° NW 17:31:03 83° WSW 17:37:15 10° SSE visible
26 Nov - 19:12:43 10° WNW 19:16:26 16° WSW 19:20:06 10° SW visible
27 Nov - 06:52:28 10° SE 06:55:17 13° E 06:58:06 10° ENE visible
27 Nov - 08:34:14 10° SSW 08:40:30 69° ESE 08:46:54 10° NE daylight
27 Nov - 10:21:44 10° WSW 10:27:25 33° NW 10:33:11 10° NNE daylight
27 Nov - 12:12:16 10° NW 12:15:56 15° NNW 12:19:35 10° NNE daylight
27 Nov - 14:01:21 10° NNW 14:05:09 16° NNE 14:08:55 10° NE daylight
27 Nov - 15:47:41 10° NNW 15:53:33 36° NE 15:59:17 10° ESE daylight
27 Nov - 17:34:03 10° NW 17:40:19 60° WSW 17:46:23 10° SSE visible
27 Nov - 19:24:16 10° W 19:25:21 10° W 19:26:25 10° WSW visible
28 Nov - 06:59:51 10° SSE 07:04:13 20° ESE 07:08:39 10° ENE visible
28 Nov - 08:43:27 10° SW 08:49:48 87° NW 08:56:17 10° NE daylight
28 Nov - 10:31:47 10° W 10:37:06 27° NNW 10:42:27 10° NNE daylight
28 Nov - 12:22:32 10° NW 12:25:52 14° N 12:29:12 10° NNE daylight
28 Nov - 14:10:47 10° NNW 14:15:02 18° NNE 14:19:15 10° ENE daylight
28 Nov - 15:56:58 10° NNW 16:03:07 46° NE 16:09:07 10° ESE daylight
28 Nov - 17:43:34 10° NW 17:49:30 43° WSW 17:55:16 10° S visible
29 Nov - 07:07:59 10° SSE 07:13:15 28° ESE 07:18:35 10° NE visible
29 Nov - 08:52:53 10° SW 08:59:11 66° NW 09:05:37 10° NNE daylight
29 Nov - 10:41:58 10° WNW 10:46:50 22° NNW 10:51:44 10° NNE daylight
29 Nov - 12:32:39 10° NNW 12:35:50 14° N 12:39:01 10° NNE daylight
29 Nov - 14:20:07 10° NNW 14:24:52 21° NNE 14:29:33 10° ENE daylight
29 Nov - 16:06:16 10° NNW 16:12:37 61° NE 16:18:45 10° SE daylight
29 Nov - 17:53:13 10° NW 17:58:36 30° WSW 18:03:51 10° SSW visible
30 Nov - 07:16:32 10° S 07:22:21 40° ESE 07:28:16 10° NE daylight
30 Nov - 09:02:30 10° WSW 09:08:40 50° NW 09:14:55 10° NNE daylight
30 Nov - 10:52:16 10° WNW 10:56:39 19° NNW 11:01:04 10° NNE daylight
30 Nov - 12:42:32 10° NNW 12:45:48 14° N 12:49:03 10° NE daylight
30 Nov - 14:29:25 10° NNW 14:34:38 25° NNE 14:39:45 10° E daylight
30 Nov - 16:15:35 10° NNW 16:22:00 82° NE 16:28:14 10° SE daylight
30 Nov - 18:03:07 10° WNW 18:07:38 21° WSW 18:12:04 10° SSW visible
01 Dec - 07:25:22 10° SSW 07:31:32 56° ESE 07:37:48 10° NE daylight
01 Dec - 09:12:18 10° WSW 09:18:13 38° NW 09:24:12 10° NNE daylight
01 Dec - 11:02:36 10° NW 11:06:31 16° NNW 11:10:27 10° NNE daylight
01 Dec - 12:52:12 10° NNW 12:55:45 15° N 12:59:16 10° NE daylight
01 Dec - 14:38:41 10° NNW 14:44:20 31° NE 14:49:50 10° E daylight
01 Dec - 16:24:57 10° NW 16:31:20 74° WSW 16:37:29 10° SSE daylight
01 Dec - 18:13:31 10° WNW 18:16:35 14° W 18:19:37 10° SW visible
02 Dec - 05:51:55 10° SE 05:55:26 15° ESE 05:58:58 10° ENE visible
02 Dec - 07:34:26 10° SSW 07:40:47 78° ESE 07:47:14 10° NE daylight
02 Dec - 09:22:16 10° W 09:27:50 30° NW 09:33:27 10° NNE daylight
02 Dec - 11:12:56 10° NW 11:16:27 15° N 11:19:58 10° NNE daylight
02 Dec - 13:01:42 10° NNW 13:05:39 17° NNE 13:09:34 10° NE daylight
02 Dec - 14:47:58 10° NNW 14:53:57 39° NE 14:59:46 10° ESE daylight
02 Dec - 16:34:24 10° NW 16:40:34 53° WSW 16:46:31 10° S daylight
03 Dec - 05:59:39 10° SSE 06:04:24 23° ESE 06:09:12 10° ENE visible
03 Dec - 07:43:45 10° SW 07:50:07 79° NW 07:56:36 10° NNE daylight
03 Dec - 09:32:23 10° W 09:37:32 25° NNW 09:42:44 10° NNE daylight
03 Dec - 11:23:08 10° NW 11:26:23 14° N 11:29:38 10° NNE daylight
03 Dec - 13:11:06 10° NNW 13:15:31 19° NNE 13:19:53 10° ENE daylight
03 Dec - 14:57:15 10° NNW 15:03:29 51° NE 15:09:31 10° ESE daylight
03 Dec - 16:43:58 10° NW 16:49:43 37° WSW 16:55:19 10° S daylight
04 Dec - 06:07:57 10° S 06:13:27 32° ESE 06:19:02 10° NE visible
04 Dec - 07:53:15 10° SW 07:59:33 59° NW 08:05:55 10° NNE daylight
04 Dec - 09:42:36 10° WNW 09:47:19 21° NNW 09:52:01 10° NNE daylight
04 Dec - 11:33:10 10° NNW 11:36:21 14° N 11:39:32 10° NNE daylight
04 Dec - 13:20:25 10° NNW 13:25:20 22° NNE 13:30:10 10° ENE daylight
04 Dec - 15:06:33 10° NNW 15:12:56 68° NE 15:19:07 10° SE daylight
04 Dec - 16:53:41 10° NW 16:58:48 26° WSW 17:03:47 10° SSW visible
05 Dec - 06:16:37 10° S 06:22:35 45° ESE 06:28:39 10° NE visible
05 Dec - 08:02:57 10° WSW 08:09:02 45° NW 08:15:12 10° NNE daylight
05 Dec - 09:52:55 10° WNW 09:57:09 18° NNW 10:01:22 10° NNE daylight
05 Dec - 11:42:58 10° NNW 11:46:19 14° N 11:49:38 10° NE daylight
05 Dec - 13:29:43 10° NNW 13:35:04 27° NNE 13:40:19 10° E daylight
05 Dec - 15:15:54 10° NW 15:22:18 89° SW 15:28:30 10° SSE daylight
05 Dec - 17:03:43 10° WNW 17:07:48 18° WSW 17:11:48 10° SW visible
